Location: Newark
(35.8833°N, 14.5000°E)
Time: 17:27:50
(UTC+00:00)

Tiangong 2 - Visible Passes

Search period start: 19 March 2019 00:00
Search period end: 29 March 2019 00:00
Orbit: 379 x 390 km, 42.8° (Epoch: 18 March)

Date Brightness Start Highest point End Pass type
(mag) Time Alt. Az. Time Alt. Az. Time Alt. Az.
19 Mar 4.0 02:56:05 16° NE 02:56:05 16° NE 02:57:10 10° NE visible
19 Mar 2.3 04:28:51 10° NW 04:31:51 38° NNE 04:34:51 10° E visible
20 Mar 2.7 03:31:37 26° N 03:32:15 28° NNE 03:35:03 10° ENE visible
21 Mar 4.7 02:35:00 11° ENE 02:35:00 11° ENE 02:35:14 10° ENE visible
21 Mar 1.4 04:07:14 15° WNW 04:09:43 61° NNE 04:12:51 10° ESE visible
22 Mar 2.6 03:10:43 35° NE 03:10:43 35° NE 03:13:09 10° E visible
23 Mar 0.9 03:46:33 41° WNW 03:47:29 73° SSW 03:50:38 10° ESE visible
24 Mar 3.9 02:50:16 17° ESE 02:50:16 17° ESE 02:51:06 10° ESE visible
24 Mar 2.7 04:22:32 12° W 04:24:30 19° SW 04:26:50 10° S visible
25 Mar 2.7 03:26:26 24° SSE 03:26:26 24° SSE 03:28:03 10° SE visible
28 Mar 3.0 18:33:30 10° SSW 18:34:52 17° S 18:34:52 17° S visible
